Погода в Леви

Канада     46°48′11″N   71°10′37″W
темп.,
°C
ветер,
м/с
пор.,
м/с
влажн.,
%
обл.,
%
осадки,
мм/ч
давл.,
гПа
погр.,
м
5 марта, пт
пт501:00−14з51082100 0.0 1005878
04:00−15зсз61179100 0.0 1005943
07:00−17з61081100 0.0 1006854
10:00−15з6989100 0.2 1006927
13:00−12з6982100 0.4 10051086
16:00−11з6981100 0.1 10051090
19:00−13з5118397 0.1 1007417
22:00−16зюз5108738 0.0 1007243
6 марта, сб
сб601:00−16зюз6118836 0.0 1008289
04:00−17зюз6138827 0.0 1009373
07:00−17зюз6128854 0.0 1011486
10:00−14зюз6108884 0.0 1011689
13:00−11зюз7108892 0.1 1011930
16:00−9зюз61089100 0.2 1012892
19:00−9з41088100 0.5 1016611
22:00−13з488687 0.0 1017192
7 марта, вс
вс701:00−16з498844 0.0 1019169
04:00−18з47900 0.0 1022144
07:00−19зюз47916 0.0 1025164
10:00−13зюз58880 0.0 1025503
13:00−9зюз698732 0.0 1026637
16:00−8зюз6108698 0.0 1026639
19:00−11зюз5119367 0.0 1029272
22:00−13зюз489564 0.0 1030223
8 марта, пн
пн801:00−15зюз379754 0.0 1030172
04:00−16зюз359639 0.0 1030122
07:00−16зюз489520 0.0 1031210
10:00−10зюз589231 0.0 1030408
13:00−6зюз478947 0.0 1027621
16:00−5зюз479098 0.1 1026728
19:00−7зюз279599 0.1 1026315
22:00−6зюз2697100 0.7 1025271
9 марта, вт
вт901:00−5з2597100 2.1 1023211
04:00−5з249799 0.4 1023147
07:00−5з379692 0.6 1024272
10:00−1зюз4710047 0.0 1025415
13:000зюз4910073 0.1 1026491
16:00+1зюз4810097 0.0 1027392
19:00+1зюз489988 0.0 1030286
22:000зюз379898 0.0 1031396